MPEC 2007-E33 : 2007 EG

The following Minor Planet Electronic Circular may be linked-to from your own Web pages, but must not otherwise be redistributed electronically.


Read MPEC 2007-E32 Read MPEC 2007-E34


M.P.E.C. 2007-E33                                Issued 2007 Mar. 10, 00:30 UT

     The Minor Planet Electronic Circulars contain information on unusual
         minor planets and routine data on comets.  They are published
   on behalf of Commission 20 of the International Astronomical Union by the
          Minor Planet Center, Smithsonian Astrophysical Observatory,
                          Cambridge, MA 02138, U.S.A.

             Prepared using the Tamkin Foundation Computer Network

                              MPC@CFA.HARVARD.EDU
          URL http://cfa-www.harvard.edu/iau/mpc.html  ISSN 1523-6714

                                    2007 EG

Observations:
     K07E00G* C2007 03 09.38362 11 11 46.32 +09 13 13.8          16.6 V EE033703
     K07E00G  C2007 03 09.38751 11 11 38.94 +09 14 27.4          16.7 V EE033703
     K07E00G  C2007 03 09.39141 11 11 31.63 +09 15 40.5          16.8 V EE033703
     K07E00G  C2007 03 09.39535 11 11 24.14 +09 16 54.8          17.1 V EE033703
     K07E00G  C2007 03 09.43058 11 10 17.61 +09 27 59.4          16.9 V EE033703
     K07E00G  C2007 03 09.43368 11 10 11.71 +09 28 57.6          17.1 V EE033703
     K07E00G  C2007 03 09.43679 11 10 05.80 +09 29 57.3          16.9 V EE033703
     K07E00G  C2007 03 09.43990 11 09 59.97 +09 30 55.5          17.0 V EE033703
     K07E00G  C2007 03 09.47961 11 08 45.43 +09 43 24.9          17.7 V EE033703
     K07E00G  C2007 03 09.48020 11 08 44.37 +09 43 35.6          17.6 V EE033703
     K07E00G  C2007 03 09.48153 11 08 41.86 +09 44 00.5          17.0 V EE033703
     K07E00G  C2007 03 09.48213 11 08 40.74 +09 44 12.2          17.3 V EE033703
     K07E00G  C2007 03 09.48345 11 08 38.12 +09 44 39.5          17.4 V EE033703
     K07E00G  C2007 03 09.48403 11 08 37.21 +09 44 48.8          17.1 V EE033703
     K07E00G  C2007 03 09.48534 11 08 34.59 +09 45 14.3          17.2 V EE033703
     K07E00G  C2007 03 09.48594 11 08 33.61 +09 45 24.4          17.1 V EE033703
     K07E00G  C2007 03 09.94987 10 54 21.25 +12 16 22.0          16.9 V EE033595
     K07E00G  C2007 03 09.95206 10 54 21.13 +12 16 34.8          16.3 R EE033J69
     K07E00G  C2007 03 09.95221 10 54 16.43 +12 17 08.8          16.9 V EE033595
     K07E00G  C2007 03 09.95314 10 54 18.94 +12 16 55.8          15.8 R EE033J69
     K07E00G  C2007 03 09.95421 10 54 16.73 +12 17 17.4          16.1 R EE033J69
     K07E00G  C2007 03 09.95455 10 54 11.60 +12 17 55.8          16.7 V EE033595
     K07E00G  C2007 03 09.95529 10 54 14.52 +12 17 39.3          15.8 R EE033J69
     K07E00G  C2007 03 09.95635 10 54 12.28 +12 18 01.4          15.9 R EE033J69
     K07E00G  C2007 03 09.98686 10 53 04.89 +12 28 40.2          17.8 R EE033473
     K07E00G  C2007 03 09.98932 10 52 59.79 +12 29 29.5          17.7 R EE033473
     K07E00G  C2007 03 09.99160 10 52 55.07 +12 30 14.7          17.8 R EE033473
     K07E00G  C2007 03 09.99388 10 52 50.37 +12 31 00.6          17.8 R EE033473

Observer details:
473 Remanzacco.  Observers L. Donato, V. Gonano, E. Guido, G. Sostero.  0.45-m
    f/4.4 Newtonian reflector + CCD.
595 Farra d'Isonzo.  Observers L. Bittesini, G. Lombardi, E. Pettarin,
    F. Piani.  Measurers G. Lombardi, E. Pettarin.  0.40-m f/4.5 reflector
    + CCD.
703 Catalina Sky Survey.  Observer E. C. Beshore.  Measurers E. C. Beshore,
    E. J. Christensen, G. J. Garradd, A. R. Gibbs, A. D. Grauer, R. E. Hill,
    R. A. Kowalski, S. M. Larson, R. H. McNaught.  0.68-m Schmidt + CCD.
J69 North Observatory, Clanfield.  Observer D. Briggs.  0.40-m f/4.57
    Newtonian reflector + CCD.

Orbital elements:
2007 EG                                                  Earth MOID = 0.0084 AU
Epoch 2007 Apr. 10.0 TT = JDT 2454200.5                 MPC
M 253.12781              (2000.0)            P               Q
n   1.48939730     Peri.  168.43898     +0.90604864     +0.42299459
a   0.7593856      Node   166.51709     -0.39234045     +0.85057416
e   0.3591105      Incl.    3.02550     -0.15857124     +0.31240867
P   0.66           H   24.7           G   0.15           U   9
Residuals in seconds of arc
070309 703  1.0-  1.7-    070309 703  0.3+  0.7+    070309 J69  0.6+  1.3-
070309 703  1.1-  1.3-    070309 703  0.4+  1.1+    070309 595 (3.8-  2.0+)
070309 703  0.0   1.6-    070309 703 (1.9-  3.5+)   070309 J69  0.7+  1.1-
070309 703  0.4-  1.5-    070309 703  0.6+  1.8+    070309 J69  0.2-  0.3-
070309 703  0.9+  0.2-    070309 703 (1.9-  2.6+)   070309 473  1.0-  0.8+
070309 703  0.1+  0.4-    070309 703  0.1+  1.4+    070309 473  0.9-  1.0+
070309 703  0.5-  0.7+    070309 595 (4.1-  1.9+)   070309 473  0.6-  0.6+
070309 703  0.1-  0.3+    070309 J69  0.4+  0.7-    070309 473  0.1-  0.9+
070309 703  0.1+  1.3+    070309 595 (3.9-  1.9+)
070309 703  0.7+  0.9+    070309 J69  0.8+  1.4-

Ephemeris:
2007 EG                  a,e,i = 0.76, 0.36, 3                   q = 0.4867
Date    TT    R. A. (2000) Decl.     Delta      r     Elong.  Phase     V
2007 03 01    13 18.03   -13 45.2    0.0504   1.028   136.5    41.6    19.9
2007 03 02    13 10.82   -12 31.2    0.0466   1.027   139.6    38.7    19.6
2007 03 03    13 02.35   -11 02.7    0.0429   1.026   143.1    35.4    19.4
2007 03 04    12 52.34   -09 16.1    0.0394   1.025   147.1    31.7    19.1
2007 03 05    12 40.43   -07 06.8    0.0359   1.023   151.7    27.3    18.8
2007 03 06    12 26.15   -04 28.9    0.0327   1.022   157.1    22.2    18.4
2007 03 07    12 08.93   -01 16.0    0.0297   1.021   163.4    16.1    18.0
2007 03 08    11 48.10   +02 38.3    0.0271   1.019   170.6     9.1    17.5
2007 03 09    11 22.91   +07 17.2    0.0248   1.017   176.9     3.0    17.0
2007 03 10    10 52.74   +12 36.3    0.0232   1.016   169.5    10.3    17.2
2007 03 11    10 17.42   +18 17.8    0.0222   1.014   158.5    21.0    17.5
2007 03 12    09 37.65   +23 49.5    0.0219   1.012   146.8    32.5    17.8
2007 03 13    08 55.32   +28 35.3    0.0225   1.010   135.3    43.8    18.2
2007 03 14    08 13.21   +32 11.1    0.0238   1.008   124.6    54.3    18.6
2007 03 15    07 33.98   +34 33.8    0.0257   1.005   115.1    63.6    19.0
2007 03 16    06 59.33   +35 56.1    0.0280   1.003   106.9    71.6    19.5
2007 03 17    06 29.80   +36 35.3    0.0308   1.001    99.9    78.3    19.9
2007 03 18    06 05.09   +36 46.8    0.0338   0.998    94.0    84.0    20.3
2007 03 19    05 44.56   +36 41.7    0.0370   0.995    88.9    88.9    20.7
2007 03 20    05 27.46   +36 27.3    0.0404   0.993    84.5    93.1    21.0
2007 03 21    05 13.12   +36 08.1    0.0438   0.990    80.7    96.8    21.4

Timothy B. Spahr             (C) Copyright 2007 MPC           M.P.E.C. 2007-E33

Read MPEC 2007-E32 Read MPEC 2007-E34


Our Web policy. Index to the CBAT/MPC/ICQ pages.

MPC

Valid HTML 4.01!